Hourly Data Report for October 22, 2014

All times are specified in Local Standard Time (LST). Add 1 hour to adjust for Daylight Saving Time where and when it is observed.

RANKIN INLET A
NUNAVUT

62°48'38.000" N
92°06'53.000" W
32.30 m
2303405
71083
YRT

Download Data

Hourly Data (October 2014)
Hourly Data Report for October 22, 2014
Temp Definition
°C
Dew Point Temp Definition
°C
Rel Hum Definition
%
Wind Dir Definition
10's deg

Wind Spd Definition
km/h
Visibility Definition
km
Stn Press Definition
kPa
Hmdx Definition


Wind Chill Definition


Weather Definition


TIME
00:00 Legend Double Dagger 1.0 0.4 96 26 14 12.9 99.67     Cloudy
01:00 Legend Double Dagger 1.0 0.4 96 27 17 16.1 99.74     LegendNANA
02:00 Legend Double Dagger 0.8 0.4 97 27 17 16.1 99.76     LegendNANA
03:00 Legend Double Dagger 0.8 0.4 97 29 15 16.1 99.82     Cloudy
04:00 Legend Double Dagger 0.8 0.4 97 29 13 19.3 99.87     LegendNANA
05:00 Legend Double Dagger 0.8 0.4 97 28 14 19.3 99.95     LegendNANA
06:00 Legend Double Dagger 0.9 0.5 97 31 15 19.3 99.99     Cloudy
07:00 Legend Double Dagger 0.9 0.3 96 33 16 24.1 100.07     LegendNANA
08:00 Legend Double Dagger 0.8 0.2 96 34 17 24.1 100.15     LegendNANA
09:00 Legend Double Dagger 0.8 0.2 96 35 16 24.1 100.23     Cloudy
10:00 Legend Double Dagger 0.9 0.2 95 35 16 24.1 100.28     LegendNANA
11:00 Legend Double Dagger 0.9 0.2 95 34 22 24.1 100.34     LegendNANA
12:00 Legend Double Dagger 0.2 -0.7 94 35 23 24.1 100.42     Mostly Cloudy
13:00 Legend Double Dagger -0.8 -1.8 93 35 24 24.1 100.50   -7 LegendNANA
14:00 Legend Double Dagger -1.7 -2.4 95 35 28 1.6 100.56   -8 Fog
15:00 Legend Double Dagger -1.8 -2.5 95 35 22 9.7 100.67   -8 Fog
16:00 Legend Double Dagger -1.9 -2.7 94 34 19 9.7 100.76   -7 Fog
17:00 Legend Double Dagger -1.8 -2.4 96 1 21 4.8 100.83   -8 Fog
18:00 Legend Double Dagger -0.9 -1.9 93 7 20 16.1 100.90   -6 Cloudy
19:00 Legend Double Dagger -1.2 -2.5 91 8 26 16.1 101.01   -8 LegendNANA
20:00 Legend Double Dagger -1.4 -2.7 91 8 28 16.1 101.12   -8 LegendNANA
21:00 Legend Double Dagger -1.8 -2.8 93 7 26 12.9 101.21   -8 Cloudy
22:00 Legend Double Dagger -1.9 -3.0 92 6 21 12.9 101.29   -8 LegendNANA
23:00 Legend Double Dagger -2.2 -3.0 94 7 22 16.1 101.36   -8 LegendNANA

Notes on Data Quality.

Legend

  • E = Estimated
  • M = Missing
  • NA = Not Available
  • ‡ = Partner data that is not subject to review by the National Climate Archives
Date modified: